Regional Weather Roundup
Issued by NWS

Home | Current Version | Previous Version | Text Only | Print | Product List | Glossary On
Versions: 1 2 3 4 5 6 7 8 9 10 11 12 13 14 15 16 17 18 19 20 21 22 23 24 25 26 27 28 29 30 31 32 33 34 35 36 37 38 39 40 41 42 43 44 45 46 47 48 49 50
000
ASUS43 KBIS 230302
RWRND

NORTH DAKOTA REGIONAL WEATHER ROUNDUP
NATIONAL WEATHER SERVICE BISMARCK ND
900 PM CST WED FEB 22 2017

NOTE: "FAIR" INDICATES FEW OR NO CLOUDS BELOW 12,000 FEET WITH NO
SIGNIFICANT WEATHER AND/OR OBSTRUCTIONS TO VISIBILITY.


NDZ001>003-009>011-017-230400-
NORTHWEST NORTH DAKOTA

CITY           SKY/WX    TMP DP  RH WIND       PRES   REMARKS
WILLISTON      CLOUDY    30  25  81 VRB3      30.00S
MINOT          MOCLDY    31  25  78 W8        29.96S
MINOT AFB      MOCLDY    29  26  88 W7        29.96R
$$

NDZ018>021-031>035-040>046-230400-
SOUTHWEST NORTH DAKOTA

CITY           SKY/WX    TMP DP  RH WIND       PRES   REMARKS
BISMARCK       CLOUDY    34  28  79 N8        29.98R
DICKINSON      CLOUDY    27  23  85 N5        29.95R
GARRISON         N/A     26  23  88 NW8       29.97R WCI  18
HETTINGER ARPT LGT SNOW  29  27  92 NE9       29.96R FOG
$$

NDZ004>008-012>016-024-026-027-054-230400-
NORTHEAST NORTH DAKOTA

CITY           SKY/WX    TMP DP  RH WIND       PRES   REMARKS
GRAND FORKS    CLEAR     30  23  75 NW8       29.92R
GRND FRKS AFB  CLEAR     30  26  83 N12       29.93R
DEVILS LAKE    CLOUDY    30  26  85 W7        29.94R
$$

NDZ022-023-025-028>030-036>039-047>053-230400-
SOUTHEAST NORTH DAKOTA

CITY           SKY/WX    TMP DP  RH WIND       PRES   REMARKS
FARGO          PTCLDY    32  29  88 N13       29.90R
JAMESTOWN      FAIR      26  23  88 NW7       29.93R WCI  18
$$





USA.gov is the U.S. government's official web portal to all federal, state and local government web resources and services.